STARLINK-1828, 46725

Orbit data source: Space-Track

STARLINK-1828, 46725 is a payload satellite owned by SpaceX/Seattle (US) in LEO that was launched on Sun, 18 Oct 2020 UTC via an FALCON 9 launch vehicle from the Air Force Eastern Test Range (AFETR). Payload-class satellites include a variety of spacecraft equipped with specific instruments for various scientific and technological missions. These include communications satellites like Starlink; space stations such as the ISS; scientific satellites like the Hubble; Earth observation satellites from companies like Planet Labs, Umbra, and HawkEye 360; GPS; miniature CubeSats for education and research; and military/defense satellites.

Not visible in the next 10 days
Identifier
46725, 2020-073BH
Orbit
LEO
Country
Flag of USUS
Related business
Manufacturer
SpaceX/Seattle
Mission
Partially operational Commercial Communications
Bus & Motor
STARLINK, Unknown motor
Mass
260 kg wet, ~248 kg dry
Launch date (UTC)
2020-10-18 (6 years ago)
Launch vehicle
FALCON 9
Launch site
Air Force Eastern Test Range (AFETR)
Object type
Payload
Rocket body
Debris
Shape & HBR
Box + 1 Pan, 10.1 m
Radar Cross Section
13.562 m², Large (>1 m²)

Expand to show TLE details & history
Last TLE update: 9 hours ago

TLE from 9 hours ago
0 STARLINK-1828
1 46725U 20073BH  26254.00004630  .00169590  21539-4  56256-3 0  9999
2 46725  53.0396  40.1828 0005873 297.2888 186.2439 15.90016805  6039
Epoch: 2026-09-11T00:00Z
TLE epoch observation values (Epoch: 2026-09-11T00:00:04.000Z)
Latitude
41.90608°
Longitude
-172.04519°
Altitude
310.108 km
Speed
7.725 km/s
True Right ascension
11h 52m 00s
True Declination
41° 43' 25"
Sunlit
Object was in daylight at epoch
Visualization orbit readout
Latitude
Unknown
Longitude
Unknown
Altitude
Unknown
Speed
Unknown
Apparent Right ascension
Unknown
Apparent Declination
Unknown
Sunlit
N/A
Visualization observer readout
Local Sidereal Time
01:31:57
Azimuth
Unknown
Elevation
Unknown
Doppler factor
Unknown
Orbital elements
Apogee altitude
306.442 km
Perigee altitude
298.595 km
Semi-major axis
6,680.656 km
Eccentricity
0.00059
Inclination
53.0396°
RAAN
40.1828°
Arg. of periapsis
297.2888°
True anomaly
186.23659°
Mean anomaly
186.2439°
Eccentric anomaly
186.24024°
Mean motion
3.97479 °/min
Orbital period
90.57 mins
BSTAR
0.00056256
Loading maneuver chart data...
Computing Atmospheric mass density...

Documentation

Showing up to 5 results
|